Location: Dürabuch
(48.2640°N, 11.2185°E)
Time: 16:20:58
(UTC+00:00)

Nadezhda 1 Rocket - Pass Details

Date: 14 August 2024
Orbit: 941 x 1004 km, 83.0° (Epoch: 19 September)

Event Time Altitude Azimuth Distance (km) Brightness Sun altitude
Rises 03:01:41 0° 153° (SSE) 3,608 6.9 -10.5°
Reaches altitude 10° 03:04:28 10° 143° (SE) 2,661 6.3 -10.1°
Maximum altitude 03:09:35 29° 85° (E) 1,647 6.0 -9.4°
Drops below altitude 10° 03:14:42 10° 28° (NNE) 2,669 7.4 -8.7°
Sets 03:17:29 0° 17° (NNE) 3,620 7.9 -8.3°
